FW1025 Weather Reports


time (UTC)temp
C
wind
direction
speed
KPH
gust
KPH
rain 1hr
cm
rain 24hr
cm
rain mn
cm
humidity
%
barometer
mb
20260507203459 15 320 14.5 24.1 0.00 0.08 0.00 33 1036.5
20260507202520 15 314 12.9 25.7 0.00 0.08 0.00 33 1037.1
20260507201533 15 329 14.5 37.0 0.00 0.08 0.00 35 1037.1
20260507200542 15 301 12.9 37.0 0.00 0.08 0.00 36 1037.4
20260507194354 14 331 11.3 24.1 0.00 0.08 0.00 38 1037.7
20260507193359 13 296 11.3 22.5 0.00 0.10 0.00 37 1037.7
20260507191213 13 341 12.9 22.5 0.00 0.10 0.00 37 1038.7
20260507190207 13 344 8.0 20.9 0.00 0.10 0.00 35 1038.7
20260507185215 12 273 11.3 25.7 0.00 0.10 0.00 34 1038.9
20260507183053 13 283 8.0 17.7 0.00 0.10 0.00 32 1039.0
20260507180949 12 300 6.4 12.9 0.00 0.10 0.00 34 1039.4
20260507180014 12 267 6.4 14.5 0.00 0.10 0.00 30 1039.4
20260507175030 12 294 4.8 16.1 0.00 0.10 0.00 32 1039.6
20260507174020 12 296 6.4 16.1 0.00 0.10 0.00 33 1040.1
20260507173012 12 308 8.0 14.5 0.00 0.10 0.00 34 1040.1
20260507170848 11 287 4.8 14.5 0.00 0.10 0.00 34 1040.5
20260507165836 11 270 8.0 14.5 0.00 0.10 0.00 39 1040.7
20260507163655 10 270 6.4 17.7 0.00 0.10 0.00 45 1040.9
20260507162704 10 273 8.0 17.7 0.00 0.10 0.00 42 1041.1
20260507161726 10 277 6.4 12.9 0.00 0.10 0.00 42 1041.1
20260507160731 9 253 6.4 14.5 0.00 0.10 0.00 40 1041.2
20260507155740 8 246 11.3 17.7 0.00 0.10 0.00 46 1041.5
20260507154707 8 246 9.7 17.7 0.00 0.10 0.00 47 1041.5
20260507153728 8 237 8.0 14.5 0.00 0.10 0.00 49 1041.8
20260507152658 7 240 8.0 16.1 0.00 0.10 0.00 49 1041.9
20260507151711 7 257 9.7 19.3 0.00 0.10 0.00 50 1041.9
20260507150730 6 243 9.7 19.3 0.00 0.10 0.00 55 1041.9
20260507145711 6 240 9.7 16.1 0.00 0.10 0.00 54 1042.2
20260507144657 6 238 8.0 14.5 0.00 0.10 0.00 54 1042.2
20260507143627 5 231 6.4 14.5 0.00 0.10 0.00 56 1042.3
20260507142624 5 263 8.0 14.5 0.00 0.10 0.00 55 1042.4
20260507141648 5 225 9.7 17.7 0.00 0.10 0.00 55 1042.4
20260507140710 4 235 11.3 17.7 0.00 0.10 0.00 54 1042.5
20260507135659 4 232 8.0 14.5 0.00 0.10 0.00 55 1042.6
20260507134710 3 249 6.4 11.3 0.00 0.10 0.00 53 1042.6
20260507133713 3 238 6.4 11.3 0.00 0.10 0.00 53 1042.6
20260507132715 3 245 4.8 9.7 0.00 0.10 0.00 55 1042.6
20260507131654 2 242 4.8 11.3 0.00 0.10 0.00 54 1042.6
20260507130621 2 240 4.8 11.3 0.00 0.10 0.00 55 1042.5
20260507125641 1 223 4.8 12.9 0.00 0.10 0.00 57 1042.4
20260507124618 1 246 4.8 12.9 0.00 0.10 0.00 56 1042.4
20260507123607 1 238 4.8 11.3 0.00 0.10 0.00 56 1042.3
20260507122544 1 236 4.8 11.3 0.00 0.10 0.00 57 1042.3
20260507121537 0 229 3.2 8.0 0.00 0.10 0.00 57 1042.3
20260507120535 0 217 3.2 9.7 0.00 0.10 0.00 56 1042.3
20260507115536 0 227 3.2 11.3 0.00 0.10 0.00 56 1042.3
20260507114551 1 228 4.8 11.3 0.00 0.10 0.00 54 1042.3
20260507113605 0 222 4.8 11.3 0.00 0.10 0.00 55 1042.4
20260507110329 0 223 3.2 6.4 0.00 0.10 0.00 55 1042.5
20260507105337 0 216 3.2 6.4 0.00 0.10 0.00 56 1042.4
20260507104310 0 224 3.2 6.4 0.00 0.10 0.00 57 1042.5
20260507103252 0 226 4.8 9.7 0.00 0.10 0.00 57 1042.5
20260507101110 0 215 3.2 6.4 0.00 0.10 0.00 59 1042.8
20260507100041 0 232 1.6 6.4 0.00 0.10 0.00 58 1042.8
20260507095038 0 246 1.6 4.8 0.00 0.10 0.00 60 1042.8
20260507094044 0 245 1.6 8.0 0.00 0.10 0.00 57 1042.7
20260507093104 0 254 1.6 8.0 0.00 0.10 0.00 55 1042.7
20260507092118 0 253 3.2 6.4 0.00 0.10 0.00 60 1042.8
20260507085915 0 259 3.2 6.4 0.00 0.10 0.00 58 1043.0
20260507084913 -1 249 1.6 6.4 0.00 0.10 0.00 65 1043.1
20260507083850 -1 233 3.2 6.4 0.00 0.10 0.00 70 1043.1
20260507082835 -1 232 3.2 9.7 0.00 0.10 0.00 70 1043.3
20260507081804 -1 226 4.8 9.7 0.00 0.10 0.00 71 1043.3
20260507080754 -1 220 3.2 6.4 0.00 0.10 0.00 73 1043.3
20260507075728 -1 236 1.6 6.4 0.00 0.10 0.00 74 1043.3
20260507074753 -1 238 3.2 6.4 0.00 0.10 0.00 77 1043.3
20260507073805 -2 220 3.2 6.4 0.00 0.10 0.00 79 1043.3
20260507072815 -2 232 3.2 6.4 0.00 0.10 0.00 80 1043.3
20260507070714 -2 241 3.2 9.7 0.00 0.10 0.00 85 1043.3
20260507063449 -2 221 1.6 6.4 0.00 0.10 0.00 90 1043.3
20260507062442 -2 230 1.6 6.4 0.00 0.10 0.00 91 1043.2
20260507061441 -2 212 3.2 8.0 0.00 0.10 0.00 92 1043.2
20260507060459 -2 195 3.2 8.0 0.00 0.10 0.00 93 1043.2
20260507055504 -2 200 3.2 8.0 0.00 0.10 0.10 94 1043.1
20260507054458 -2 202 3.2 8.0 0.00 0.10 0.10 94 1043.1
20260507053510 -2 212 1.6 8.0 0.00 0.10 0.10 93 1043.1
20260507052440 -2 200 3.2 9.7 0.00 0.10 0.10 93 1042.9
20260507051422 -2 184 3.2 12.9 0.00 0.10 0.10 93 1042.9
20260507050433 -2 190 4.8 12.9 0.00 0.10 0.10 93 1042.6
20260507045437 -2 217 4.8 12.9 0.00 0.10 0.10 93 1042.6
20260507044434 -2 167 6.4 19.3 0.00 0.10 0.10 93 1042.6
20260507042319 -2 182 6.4 16.1 0.00 0.10 0.10 92 1042.6
20260507041246 -2 160 8.0 17.7 0.00 0.10 0.10 92 1042.6
20260507040219 -2 178 8.0 17.7 0.00 0.10 0.10 92 1042.6
20260507035242 -2 180 6.4 16.1 0.00 0.10 0.10 92 1042.6
20260507034230 -2 195 6.4 16.1 0.00 0.10 0.10 91 1042.6
20260507033225 -1 175 8.0 16.1 0.00 0.10 0.10 91 1042.6
20260507032153 -1 172 8.0 16.1 0.00 0.10 0.10 90 1042.5
20260507024947 -1 192 6.4 14.5 0.00 0.10 0.10 89 1042.3
20260507023923 -1 186 8.0 14.5 0.00 0.10 0.10 88 1042.1
20260507022930 -1 190 6.4 14.5 0.00 0.10 0.10 88 1042.1
20260507021942 -1 193 6.4 12.9 0.00 0.10 0.10 88 1042.1
20260507021005 -1 198 4.8 12.9 0.00 0.10 0.10 87 1041.9
20260507015947 -1 186 4.8 16.1 0.00 0.10 0.10 86 1041.9
20260507015010 0 207 8.0 16.1 0.00 0.10 0.10 85 1041.9
20260507012921 0 197 8.0 16.1 0.00 0.10 0.10 82 1041.8
20260507011903 0 202 8.0 17.7 0.00 0.10 0.10 82 1041.8
20260507010909 0 204 8.0 17.7 0.00 0.10 0.10 80 1041.7
20260507005907 1 154 6.4 14.5 0.00 0.10 0.10 80 1041.7
20260507004838 1 211 8.0 14.5 0.00 0.10 0.10 80 1041.7
20260507003901 1 196 6.4 12.9 0.00 0.10 0.10 79 1041.7
20260507002920 1 211 6.4 16.1 0.00 0.10 0.10 80 1041.7
20260507000842 0 195 8.0 14.5 0.00 0.10 0.10 80 1041.8
20260506234731 0 202 6.4 12.9 0.00 0.10 0.10 81 1041.7
20260506233753 0 203 4.8 11.3 0.00 0.10 0.10 81 1041.7
20260506232719 0 194 6.4 11.3 0.00 0.10 0.10 79 1041.7
20260506231700 0 183 4.8 9.7 0.00 0.10 0.10 80 1041.7
20260506225600 0 227 3.2 8.0 0.00 0.10 0.10 77 1041.6
20260506224557 1 239 0.0 3.2 0.00 0.10 0.10 79 1041.6
20260506222404 1 5 1.6 6.4 0.00 0.10 0.10 84 1041.8
20260506221428 0 17 3.2 9.7 0.00 0.10 0.10 85 1041.8
20260506220411 0 316 3.2 14.5 0.00 0.08 0.08 85 1041.9
20260506215411 0 355 8.0 16.1 0.00 0.08 0.08 83 1041.8
20260506214339 0 0 8.0 16.1 0.10 0.08 0.08 84 1041.9
20260506213341 0 5 8.0 14.5 0.23 0.08 0.08 85 1041.9
20260506212313 0 42 6.4 14.5 0.00 0.05 0.05 86 1042.4
20260506211334 0 355 4.8 14.5 0.00 0.03 0.03 88 1042.3
20260506210300 -1 14 8.0 16.1 0.00 0.03 0.03 87 1042.3
20260506205312 -1 25 6.4 16.1 0.00 0.03 0.03 87 1042.3
20260506204250 -1 36 6.4 19.3 0.00 0.03 0.03 89 1042.3